Location: Marne
(34.0056°N, 117.9064°W)
Time: 17:07:31
(UTC+00:00)

CZ-4C R/B - Pass Details

Date: 18 January 2020
Orbit: 644 x 1358 km, 63.4° (Epoch: 21 February)

Event Time Altitude Azimuth Distance (km) Brightness Sun altitude
Rises 01:41:29 0° 339° (NNW) 3,882 5.7 -7.4°
Reaches altitude 10° 01:44:27 10° 350° (N) 3,032 5.0 -8.0°
Maximum altitude 01:50:47 30° 49° (NE) 2,095 3.7 -9.2°
Drops below altitude 10° 01:57:45 10° 107° (ESE) 3,358 4.8 -10.6°
Sets 02:01:11 0° 117° (ESE) 4,365 5.5 -11.3°
